Regional Weather Roundup
Issued by NWS

Home | Current Version | Previous Version | Text Only | Print | Product List | Glossary Off
Versions: 1 2 3 4 5 6 7 8 9 10 11 12 13 14 15 16 17 18 19 20 21 22 23 24 25 26 27 28 29 30 31 32 33 34 35 36 37 38 39 40 41 42 43 44 45 46 47 48 49 50

270
ASUS44 KMEG 300600
RWRTN
TENNESSEE HOURLY STATE WEATHER ROUNDUP
NATIONAL WEATHER SERVICE MEMPHIS TN
100 AM CDT SAT JUL 30 2016

TNZ002-004-019-021-049-052-054-088>092-300700-
WEST TENNESSEE

CITY           SKY/WX    TMP DP  RH WIND       PRES   REMARKS
MEMPHIS INTL   PTCLDY    72  69  90 CALM      29.98S FOG
NWS MEMPHIS      N/A     72 N/A N/A MISG        N/A
JACKSON        CLOUDY    72  72 100 SW8       29.96F
DYERSBURG      PTCLDY   N/A N/A N/A MISG        N/A
UNION CITY     CLOUDY    72  72 100 CALM      29.94F
PARIS          CLOUDY    70  68  94 CALM      29.96S
LEXINGTON      CLEAR     72  70  94 SW8       29.95S
$$

TNZ008-025-027-028-033-062-065-066-300700-
NORTH MIDDLE TENNESSEE

CITY           SKY/WX    TMP DP  RH WIND       PRES   REMARKS
NASHVILLE      MOCLDY    74  70  87 CALM      29.95R
CLARKSVILLE    PTCLDY    73  70  90 W3        29.95R
COOKEVILLE     CLEAR     72  72 100 CALM      29.97F
CROSSVILLE     MOCLDY    71  69  93 VRB3      30.01F
$$

TNZ061-075-076-078-094-096-097-300700-
SOUTH MIDDLE TENNESSEE

CITY           SKY/WX    TMP DP  RH WIND       PRES   REMARKS
TULLAHOMA      CLEAR     72  66  83 CALM      29.98F
WINCHESTER     CLEAR     73  72  94 CALM      29.97F
MCMINNVILLE    CLEAR     73  73 100 CALM      29.97F
COLUMBIA       CLEAR    N/A N/A N/A S3        29.94F
SHELBYVILLE    CLEAR     72  72 100 CALM      29.96F
$$

TNZ017-018-042-046-047-300700-
NORTHEAST TENNESSEE

CITY           SKY/WX    TMP DP  RH WIND       PRES   REMARKS
TRI CITIES     CLOUDY    69  67  93 CALM      30.03F
$$

TNZ012-013-036-069-073-074-300700-
CENTRAL EAST TENNESSEE

CITY           SKY/WX    TMP DP  RH WIND       PRES   REMARKS
KNOXVILLE      PTCLDY    73  70  90 S5        29.98F
OAK RIDGE      PTCLDY    75  71  87 CALM      29.99F
GATLINBURG     CLEAR     70  70 100 CALM      29.99F
$$

TNZ083-085-099-300700-
SOUTHEAST TENNESSEE

CITY           SKY/WX    TMP DP  RH WIND       PRES   REMARKS
CHATTANOOGA    PTCLDY    76  68  76 E3        29.97F
$$

SKY/WX REPORTED AS FAIR MEANS FEW OR NO CLOUDS BELOW
12 THOUSAND FEET.





USA.gov is the U.S. government's official web portal to all federal, state and local government web resources and services.